Content
SEND FEEDBACK

Daily
Averages
Monthly
Summary
France

AVIGNON, FRANCE


Home > Europe > France
Elevation: 187 feet     Latitude: 44 00N     Longitude: 004 45E

WEATHER
 
SELECT A DAY
Number of Records: 173,842;   Date Range: 5/17/04 - 11/26/14
 
SHARE

PRINT THIS DATA

[ ← Previous Day ]
WEATHER ALMANAC - MARCH 3, 2013
[ Next Day → ]
[ °C ]   °F
Weather ElementAverageHighLow
Temperature41.8 °F62.6 °F (4:30 pm)24.8 °F (7:00 am)
Dewpoint31.4 °F37.4 °F (2:00 pm)24.8 °F (2:00 am)
Humidity70.9 %100 % (5:30 am)37 % (4:30 pm)
Barometer30.04 in30.12 in (12:30 am)29.98 in (3:30 pm)
Wind Speed2.1 mph5.8 mph (10:00 am)
Weather ElementAverage
Visibility5.1 mi
Wind DirectionENE (53.3 °)

Weather ElementTotal
Precipitation---
Heating Degree Days21.3 (Base 65)
Averaged from 46 records on March 3, 2013
WEATHER CONDITIONS BREAKOUT
WIND DIRECTION BREAKOUT
WEATHER BY HOUR - MARCH 3, 2013
[ °C ]   °F
Local TimeTemperatureDewpointHumidityBarometerVisibilityWind DirectionWind SpeedGust SpeedPrecipitationEventsConditions
12:30 AM30.2 °F28.4 °F93 %30.12 in4.3 miVariable2.3 mph
1:00 AM30.2 °F26.6 °F86 %30.12 in4.3 miVariable2.3 mph
1:30 AM30.2 °F26.6 °F86 %30.12 in4.3 miCalm
2:00 AM28.4 °F24.8 °F86 %30.12 in3.7 miCalm
2:30 AM28.4 °F26.6 °F93 %30.12 in3.7 miCalm
3:00 AM28.4 °F24.8 °F86 %30.09 in3.7 miVariable1.2 mph
3:30 AM26.6 °F24.8 °F93 %30.09 in3.7 miNNW (340°)1.2 mph
4:00 AM28.4 °F26.6 °F93 %30.09 in3.7 miCalm
4:30 AM28.4 °F26.6 °F93 %30.06 in3.1 miCalmMist
5:00 AM26.6 °F24.8 °F93 %30.06 inSouth (170°)2.3 mphMist
5:30 AM26.6 °F26.6 °F100 %30.06 inSouth (180°)3.5 mphMist
6:00 AM26.6 °F24.8 °F93 %30.06 in2.5 miSouth (180°)3.5 mphMist
6:30 AM28.4 °F26.6 °F93 %30.06 in3.1 miVariable2.3 mphMist
7:00 AM24.8 °F24.8 °F100 %30.06 inVariable2.3 mphMist
7:30 AM26.6 °F26.6 °F100 %30.06 inEast (100°)3.5 mphMist
8:00 AM28.4 °F28.4 °F100 %30.06 inSouth (180°)3.5 mphMist
8:30 AM32.0 °F32.0 °F100 %30.06 inSSE (160°)2.3 mphMist
9:00 AM35.6 °F30.2 °F81 %30.06 in3.7 miCalm
9:30 AM39.2 °F32.0 °F75 %30.06 in4.3 miNNE (20°)4.6 mph
10:00 AM41.0 °F32.0 °F70 %30.06 in4.3 miNorth (10°)5.8 mph
10:30 AM42.8 °F32.0 °F66 %30.06 in4.3 miNorth (10°)3.5 mph
11:00 AM44.6 °F32.0 °F61 %30.06 in5.0 miNorth (10°)4.6 mph
11:30 AM48.2 °F33.8 °F58 %30.06 in4.3 miVariable2.3 mph
12:00 PM50.0 °F33.8 °F54 %30.06 in5.0 miVariable3.5 mph
12:30 PM53.6 °F35.6 °F51 %30.04 in5.0 miVariable3.5 mph
1:00 PM53.6 °F33.8 °F47 %30.04 in5.0 miVariable3.5 mph
1:30 PM57.2 °F35.6 °F44 %30.04 in6.2 miVariable3.5 mph
2:00 PM57.2 °F37.4 °F48 %30.01 in6.2 miVariable3.5 mph
2:30 PM59.0 °F35.6 °F42 %30.01 in6.2 miVariable2.3 mph
3:00 PM60.8 °F35.6 °F39 %30.01 in6.2 miVariable2.3 mph
3:30 PM60.8 °F35.6 °F39 %29.98 in6.2 miVariable2.3 mph
4:00 PM60.8 °F35.6 °F39 %29.98 in6.2 miVariable2.3 mph
4:30 PM62.6 °F35.6 °F37 %29.98 in6.2 miVariable2.3 mph
5:00 PM62.6 °F35.6 °F37 %29.98 in6.2 miVariable1.2 mph
5:30 PM60.8 °F37.4 °F42 %29.98 in6.2 miNNW (330°)2.3 mph
6:00 PM59.0 °F35.6 °F42 %29.98 in6.2 miNW (320°)2.3 mph
6:30 PM53.6 °F35.6 °F51 %29.98 in6.2 miCalm
7:00 PM50.0 °F35.6 °F58 %29.98 in6.2 miEast (90°)2.3 mph
7:30 PM50.0 °F35.6 °F58 %30.01 in6.2 miCalm
8:00 PM46.4 °F33.8 °F62 %30.01 in6.2 miNNE (20°)1.2 mph
8:30 PM42.8 °F33.8 °F70 %30.01 in6.2 miCalm
9:00 PM41.0 °F33.8 °F76 %30.01 in6.2 miCalm
9:30 PM41.0 °F33.8 °F76 %30.04 in6.2 miVariable1.2 mph
10:00 PM39.2 °F32.0 °F75 %30.04 in5.6 miEast (100°)3.5 mph
10:30 PM37.4 °F32.0 °F81 %30.04 in6.2 miEast (90°)2.3 mph
11:30 PM33.8 °F32.0 °F93 %30.04 in6.2 miSE (140°)2.3 mph
Hourly data recorded from LFMV, located miles away from Avignon, France







STORIES FROM OUR PARTNERS